<?xml version="1.0" encoding="UTF-8" standalone="no" ?>
<gpx xmlns="http://www.topografix.com/GPX/1/1" xmlns:xsi="http://www.w3.org/2001/XMLSchema-instance" xsi:schemaLocation="http://www.topografix.com/GPX/1/1 http://www.topografix.com/GPX/1/1/gpx.xsd" version="1.1" creator="VisuGPX - https://www.visugpx.com">
  <metadata>
    <name>210414Pic et Dent de l'Ours - Grotte de l'Uzel</name>
  </metadata>
  <trk>
    <name><![CDATA[Randonnée du 14/04/2021 à 09:58]]></name>
    <extensions>
      <line xmlns="http://www.topografix.com/GPX/gpx_style/0/2">
        <color>0000FF</color>
        <width>4</width>
      </line>
    </extensions>
    <trkseg>
      <trkpt lat="43.4701" lon="6.90853">
        <ele>297</ele>
        <time>2021-04-14T10:00:00+02:00</time>
      </trkpt>
      <trkpt lat="43.4702" lon="6.90849">
        <ele>295</ele>
        <time>2021-04-14T10:00:00+02:00</time>
      </trkpt>
      <trkpt lat="43.47027" lon="6.90841">
        <ele>296</ele>
        <time>2021-04-14T10:02:08+02:00</time>
      </trkpt>
      <trkpt lat="43.47032" lon="6.90825">
        <ele>298</ele>
        <time>2021-04-14T10:02:08+02:00</time>
      </trkpt>
      <trkpt lat="43.47037" lon="6.90814">
        <ele>299</ele>
        <time>2021-04-14T10:02:08+02:00</time>
      </trkpt>
      <trkpt lat="43.47041" lon="6.90802">
        <ele>301</ele>
        <time>2021-04-14T10:02:08+02:00</time>
      </trkpt>
      <trkpt lat="43.47046" lon="6.90792">
        <ele>302</ele>
        <time>2021-04-14T10:02:08+02:00</time>
      </trkpt>
      <trkpt lat="43.47051" lon="6.90781">
        <ele>302</ele>
        <time>2021-04-14T10:02:08+02:00</time>
      </trkpt>
      <trkpt lat="43.47057" lon="6.90772">
        <ele>303</ele>
        <time>2021-04-14T10:02:08+02:00</time>
      </trkpt>
      <trkpt lat="43.47058" lon="6.90759">
        <ele>303</ele>
        <time>2021-04-14T10:02:08+02:00</time>
      </trkpt>
      <trkpt lat="43.47065" lon="6.90751">
        <ele>304</ele>
        <time>2021-04-14T10:02:08+02:00</time>
      </trkpt>
      <trkpt lat="43.4707" lon="6.9074">
        <ele>304</ele>
        <time>2021-04-14T10:02:08+02:00</time>
      </trkpt>
      <trkpt lat="43.47077" lon="6.9073">
        <ele>304</ele>
        <time>2021-04-14T10:02:08+02:00</time>
      </trkpt>
      <trkpt lat="43.47082" lon="6.90718">
        <ele>304</ele>
        <time>2021-04-14T10:02:08+02:00</time>
      </trkpt>
      <trkpt lat="43.47089" lon="6.90709">
        <ele>304</ele>
        <time>2021-04-14T10:02:08+02:00</time>
      </trkpt>
      <trkpt lat="43.47092" lon="6.90721">
        <ele>304</ele>
        <time>2021-04-14T10:04:16+02:00</time>
      </trkpt>
      <trkpt lat="43.47086" lon="6.90733">
        <ele>304</ele>
        <time>2021-04-14T10:04:16+02:00</time>
      </trkpt>
      <trkpt lat="43.47083" lon="6.90744">
        <ele>304</ele>
        <time>2021-04-14T10:04:16+02:00</time>
      </trkpt>
      <trkpt lat="43.47079" lon="6.90756">
        <ele>304</ele>
        <time>2021-04-14T10:04:16+02:00</time>
      </trkpt>
      <trkpt lat="43.47077" lon="6.90768">
        <ele>304</ele>
        <time>2021-04-14T10:04:16+02:00</time>
      </trkpt>
      <trkpt lat="43.47076" lon="6.90782">
        <ele>304</ele>
        <time>2021-04-14T10:04:16+02:00</time>
      </trkpt>
      <trkpt lat="43.47075" lon="6.90795">
        <ele>303</ele>
        <time>2021-04-14T10:04:16+02:00</time>
      </trkpt>
      <trkpt lat="43.47084" lon="6.90798">
        <ele>304</ele>
        <time>2021-04-14T10:04:16+02:00</time>
      </trkpt>
      <trkpt lat="43.47092" lon="6.9079">
        <ele>304</ele>
        <time>2021-04-14T10:06:24+02:00</time>
      </trkpt>
      <trkpt lat="43.47097" lon="6.90779">
        <ele>305</ele>
        <time>2021-04-14T10:06:24+02:00</time>
      </trkpt>
      <trkpt lat="43.47103" lon="6.9077">
        <ele>305</ele>
        <time>2021-04-14T10:06:24+02:00</time>
      </trkpt>
      <trkpt lat="43.4711" lon="6.90761">
        <ele>306</ele>
        <time>2021-04-14T10:06:24+02:00</time>
      </trkpt>
      <trkpt lat="43.47119" lon="6.90756">
        <ele>307</ele>
        <time>2021-04-14T10:06:24+02:00</time>
      </trkpt>
      <trkpt lat="43.47128" lon="6.90753">
        <ele>307</ele>
        <time>2021-04-14T10:06:24+02:00</time>
      </trkpt>
      <trkpt lat="43.47137" lon="6.9075">
        <ele>308</ele>
        <time>2021-04-14T10:06:24+02:00</time>
      </trkpt>
      <trkpt lat="43.47129" lon="6.90757">
        <ele>310</ele>
        <time>2021-04-14T10:08:32+02:00</time>
      </trkpt>
      <trkpt lat="43.47127" lon="6.9077">
        <ele>310</ele>
        <time>2021-04-14T10:08:32+02:00</time>
      </trkpt>
      <trkpt lat="43.47123" lon="6.90781">
        <ele>311</ele>
        <time>2021-04-14T10:08:32+02:00</time>
      </trkpt>
      <trkpt lat="43.47122" lon="6.90795">
        <ele>311</ele>
        <time>2021-04-14T10:08:32+02:00</time>
      </trkpt>
      <trkpt lat="43.4712" lon="6.90808">
        <ele>312</ele>
        <time>2021-04-14T10:08:32+02:00</time>
      </trkpt>
      <trkpt lat="43.47117" lon="6.9082">
        <ele>312</ele>
        <time>2021-04-14T10:08:32+02:00</time>
      </trkpt>
      <trkpt lat="43.47118" lon="6.90832">
        <ele>312</ele>
        <time>2021-04-14T10:08:32+02:00</time>
      </trkpt>
      <trkpt lat="43.47115" lon="6.90845">
        <ele>313</ele>
        <time>2021-04-14T10:08:32+02:00</time>
      </trkpt>
      <trkpt lat="43.47114" lon="6.90858">
        <ele>313</ele>
        <time>2021-04-14T10:08:32+02:00</time>
      </trkpt>
      <trkpt lat="43.47113" lon="6.90871">
        <ele>313</ele>
        <time>2021-04-14T10:08:32+02:00</time>
      </trkpt>
      <trkpt lat="43.47114" lon="6.90883">
        <ele>313</ele>
        <time>2021-04-14T10:10:40+02:00</time>
      </trkpt>
      <trkpt lat="43.47117" lon="6.90895">
        <ele>316</ele>
        <time>2021-04-14T10:12:48+02:00</time>
      </trkpt>
      <trkpt lat="43.47119" lon="6.90908">
        <ele>316</ele>
        <time>2021-04-14T10:12:48+02:00</time>
      </trkpt>
      <trkpt lat="43.47122" lon="6.90921">
        <ele>317</ele>
        <time>2021-04-14T10:12:48+02:00</time>
      </trkpt>
      <trkpt lat="43.47129" lon="6.90928">
        <ele>318</ele>
        <time>2021-04-14T10:12:48+02:00</time>
      </trkpt>
      <trkpt lat="43.47134" lon="6.9094">
        <ele>319</ele>
        <time>2021-04-14T10:12:48+02:00</time>
      </trkpt>
      <trkpt lat="43.4714" lon="6.9095">
        <ele>319</ele>
        <time>2021-04-14T10:12:48+02:00</time>
      </trkpt>
      <trkpt lat="43.47149" lon="6.90954">
        <ele>320</ele>
        <time>2021-04-14T10:12:48+02:00</time>
      </trkpt>
      <trkpt lat="43.47159" lon="6.90956">
        <ele>320</ele>
        <time>2021-04-14T10:12:48+02:00</time>
      </trkpt>
      <trkpt lat="43.47169" lon="6.90955">
        <ele>321</ele>
        <time>2021-04-14T10:12:48+02:00</time>
      </trkpt>
      <trkpt lat="43.47178" lon="6.90954">
        <ele>321</ele>
        <time>2021-04-14T10:12:48+02:00</time>
      </trkpt>
      <trkpt lat="43.47187" lon="6.90952">
        <ele>322</ele>
        <time>2021-04-14T10:12:48+02:00</time>
      </trkpt>
      <trkpt lat="43.47196" lon="6.90952">
        <ele>322</ele>
        <time>2021-04-14T10:14:56+02:00</time>
      </trkpt>
      <trkpt lat="43.47205" lon="6.90948">
        <ele>323</ele>
        <time>2021-04-14T10:14:56+02:00</time>
      </trkpt>
      <trkpt lat="43.47213" lon="6.90941">
        <ele>324</ele>
        <time>2021-04-14T10:14:56+02:00</time>
      </trkpt>
      <trkpt lat="43.47221" lon="6.90935">
        <ele>325</ele>
        <time>2021-04-14T10:14:56+02:00</time>
      </trkpt>
      <trkpt lat="43.47228" lon="6.90926">
        <ele>325</ele>
        <time>2021-04-14T10:14:56+02:00</time>
      </trkpt>
      <trkpt lat="43.47237" lon="6.90924">
        <ele>327</ele>
        <time>2021-04-14T10:14:56+02:00</time>
      </trkpt>
      <trkpt lat="43.47246" lon="6.90919">
        <ele>328</ele>
        <time>2021-04-14T10:14:56+02:00</time>
      </trkpt>
      <trkpt lat="43.47255" lon="6.90917">
        <ele>329</ele>
        <time>2021-04-14T10:14:56+02:00</time>
      </trkpt>
      <trkpt lat="43.47265" lon="6.90915">
        <ele>331</ele>
        <time>2021-04-14T10:14:56+02:00</time>
      </trkpt>
      <trkpt lat="43.47272" lon="6.90906">
        <ele>333</ele>
        <time>2021-04-14T10:14:56+02:00</time>
      </trkpt>
      <trkpt lat="43.4728" lon="6.90901">
        <ele>334</ele>
        <time>2021-04-14T10:17:04+02:00</time>
      </trkpt>
      <trkpt lat="43.47289" lon="6.90898">
        <ele>336</ele>
        <time>2021-04-14T10:17:04+02:00</time>
      </trkpt>
      <trkpt lat="43.47299" lon="6.90896">
        <ele>337</ele>
        <time>2021-04-14T10:17:04+02:00</time>
      </trkpt>
      <trkpt lat="43.47308" lon="6.90894">
        <ele>339</ele>
        <time>2021-04-14T10:17:04+02:00</time>
      </trkpt>
      <trkpt lat="43.47317" lon="6.9089">
        <ele>341</ele>
        <time>2021-04-14T10:17:04+02:00</time>
      </trkpt>
      <trkpt lat="43.47326" lon="6.90891">
        <ele>342</ele>
        <time>2021-04-14T10:17:04+02:00</time>
      </trkpt>
      <trkpt lat="43.47335" lon="6.90891">
        <ele>343</ele>
        <time>2021-04-14T10:17:04+02:00</time>
      </trkpt>
      <trkpt lat="43.47345" lon="6.90891">
        <ele>345</ele>
        <time>2021-04-14T10:17:04+02:00</time>
      </trkpt>
      <trkpt lat="43.4734" lon="6.90879">
        <ele>360</ele>
        <time>2021-04-14T10:21:20+02:00</time>
      </trkpt>
      <trkpt lat="43.47332" lon="6.90872">
        <ele>363</ele>
        <time>2021-04-14T10:21:20+02:00</time>
      </trkpt>
      <trkpt lat="43.47324" lon="6.90866">
        <ele>365</ele>
        <time>2021-04-14T10:21:20+02:00</time>
      </trkpt>
      <trkpt lat="43.47316" lon="6.9086">
        <ele>367</ele>
        <time>2021-04-14T10:21:20+02:00</time>
      </trkpt>
      <trkpt lat="43.47311" lon="6.9085">
        <ele>369</ele>
        <time>2021-04-14T10:21:20+02:00</time>
      </trkpt>
      <trkpt lat="43.4732" lon="6.90848">
        <ele>375</ele>
        <time>2021-04-14T10:21:20+02:00</time>
      </trkpt>
      <trkpt lat="43.47329" lon="6.90847">
        <ele>377</ele>
        <time>2021-04-14T10:23:28+02:00</time>
      </trkpt>
      <trkpt lat="43.47339" lon="6.90848">
        <ele>380</ele>
        <time>2021-04-14T10:23:28+02:00</time>
      </trkpt>
      <trkpt lat="43.47348" lon="6.90848">
        <ele>381</ele>
        <time>2021-04-14T10:23:28+02:00</time>
      </trkpt>
      <trkpt lat="43.47357" lon="6.90851">
        <ele>383</ele>
        <time>2021-04-14T10:23:28+02:00</time>
      </trkpt>
      <trkpt lat="43.47367" lon="6.90851">
        <ele>384</ele>
        <time>2021-04-14T10:23:28+02:00</time>
      </trkpt>
      <trkpt lat="43.47376" lon="6.90854">
        <ele>386</ele>
        <time>2021-04-14T10:23:28+02:00</time>
      </trkpt>
      <trkpt lat="43.47385" lon="6.90854">
        <ele>387</ele>
        <time>2021-04-14T10:23:28+02:00</time>
      </trkpt>
      <trkpt lat="43.47394" lon="6.90859">
        <ele>389</ele>
        <time>2021-04-14T10:23:28+02:00</time>
      </trkpt>
      <trkpt lat="43.47403" lon="6.90854">
        <ele>394</ele>
        <time>2021-04-14T10:25:36+02:00</time>
      </trkpt>
      <trkpt lat="43.47408" lon="6.90864">
        <ele>401</ele>
        <time>2021-04-14T10:29:52+02:00</time>
      </trkpt>
      <trkpt lat="43.47417" lon="6.9087">
        <ele>402</ele>
        <time>2021-04-14T10:29:52+02:00</time>
      </trkpt>
      <trkpt lat="43.47425" lon="6.90876">
        <ele>403</ele>
        <time>2021-04-14T10:29:52+02:00</time>
      </trkpt>
      <trkpt lat="43.47431" lon="6.90886">
        <ele>405</ele>
        <time>2021-04-14T10:29:52+02:00</time>
      </trkpt>
      <trkpt lat="43.4744" lon="6.90892">
        <ele>406</ele>
        <time>2021-04-14T10:29:52+02:00</time>
      </trkpt>
      <trkpt lat="43.47446" lon="6.90901">
        <ele>407</ele>
        <time>2021-04-14T10:32:00+02:00</time>
      </trkpt>
      <trkpt lat="43.47454" lon="6.90907">
        <ele>408</ele>
        <time>2021-04-14T10:32:00+02:00</time>
      </trkpt>
      <trkpt lat="43.47462" lon="6.90915">
        <ele>408</ele>
        <time>2021-04-14T10:32:00+02:00</time>
      </trkpt>
      <trkpt lat="43.47463" lon="6.90927">
        <ele>409</ele>
        <time>2021-04-14T10:32:00+02:00</time>
      </trkpt>
      <trkpt lat="43.47471" lon="6.90935">
        <ele>409</ele>
        <time>2021-04-14T10:32:00+02:00</time>
      </trkpt>
      <trkpt lat="43.47479" lon="6.90942">
        <ele>410</ele>
        <time>2021-04-14T10:32:00+02:00</time>
      </trkpt>
      <trkpt lat="43.47484" lon="6.90953">
        <ele>410</ele>
        <time>2021-04-14T10:32:00+02:00</time>
      </trkpt>
      <trkpt lat="43.4749" lon="6.90963">
        <ele>411</ele>
        <time>2021-04-14T10:32:00+02:00</time>
      </trkpt>
      <trkpt lat="43.47497" lon="6.90972">
        <ele>411</ele>
        <time>2021-04-14T10:32:00+02:00</time>
      </trkpt>
      <trkpt lat="43.47502" lon="6.90982">
        <ele>412</ele>
        <time>2021-04-14T10:34:08+02:00</time>
      </trkpt>
      <trkpt lat="43.47503" lon="6.9097">
        <ele>412</ele>
        <time>2021-04-14T10:34:08+02:00</time>
      </trkpt>
      <trkpt lat="43.47507" lon="6.90958">
        <ele>413</ele>
        <time>2021-04-14T10:34:08+02:00</time>
      </trkpt>
      <trkpt lat="43.47502" lon="6.90948">
        <ele>413</ele>
        <time>2021-04-14T10:34:08+02:00</time>
      </trkpt>
      <trkpt lat="43.4751" lon="6.90953">
        <ele>415</ele>
        <time>2021-04-14T10:36:16+02:00</time>
      </trkpt>
      <trkpt lat="43.47515" lon="6.90964">
        <ele>416</ele>
        <time>2021-04-14T10:36:16+02:00</time>
      </trkpt>
      <trkpt lat="43.47519" lon="6.90976">
        <ele>417</ele>
        <time>2021-04-14T10:36:16+02:00</time>
      </trkpt>
      <trkpt lat="43.47524" lon="6.90966">
        <ele>418</ele>
        <time>2021-04-14T10:36:16+02:00</time>
      </trkpt>
      <trkpt lat="43.47527" lon="6.90953">
        <ele>422</ele>
        <time>2021-04-14T10:40:32+02:00</time>
      </trkpt>
      <trkpt lat="43.47523" lon="6.90941">
        <ele>423</ele>
        <time>2021-04-14T10:40:32+02:00</time>
      </trkpt>
      <trkpt lat="43.47521" lon="6.90928">
        <ele>423</ele>
        <time>2021-04-14T10:40:32+02:00</time>
      </trkpt>
      <trkpt lat="43.47522" lon="6.90915">
        <ele>424</ele>
        <time>2021-04-14T10:40:32+02:00</time>
      </trkpt>
      <trkpt lat="43.47521" lon="6.90902">
        <ele>425</ele>
        <time>2021-04-14T10:40:32+02:00</time>
      </trkpt>
      <trkpt lat="43.47517" lon="6.90891">
        <ele>427</ele>
        <time>2021-04-14T10:40:32+02:00</time>
      </trkpt>
      <trkpt lat="43.47513" lon="6.9088">
        <ele>429</ele>
        <time>2021-04-14T10:40:32+02:00</time>
      </trkpt>
      <trkpt lat="43.47512" lon="6.90867">
        <ele>431</ele>
        <time>2021-04-14T10:40:32+02:00</time>
      </trkpt>
      <trkpt lat="43.4751" lon="6.90854">
        <ele>432</ele>
        <time>2021-04-14T10:42:40+02:00</time>
      </trkpt>
      <trkpt lat="43.47508" lon="6.90841">
        <ele>434</ele>
        <time>2021-04-14T10:42:40+02:00</time>
      </trkpt>
      <trkpt lat="43.47511" lon="6.90829">
        <ele>454</ele>
        <time>2021-04-14T10:46:56+02:00</time>
      </trkpt>
      <trkpt lat="43.47512" lon="6.90816">
        <ele>457</ele>
        <time>2021-04-14T10:46:56+02:00</time>
      </trkpt>
      <trkpt lat="43.47516" lon="6.90805">
        <ele>459</ele>
        <time>2021-04-14T10:46:56+02:00</time>
      </trkpt>
      <trkpt lat="43.47525" lon="6.90802">
        <ele>459</ele>
        <time>2021-04-14T10:46:56+02:00</time>
      </trkpt>
      <trkpt lat="43.47532" lon="6.90794">
        <ele>461</ele>
        <time>2021-04-14T10:49:04+02:00</time>
      </trkpt>
      <trkpt lat="43.47534" lon="6.90782">
        <ele>462</ele>
        <time>2021-04-14T10:49:04+02:00</time>
      </trkpt>
      <trkpt lat="43.47542" lon="6.90775">
        <ele>463</ele>
        <time>2021-04-14T10:49:04+02:00</time>
      </trkpt>
      <trkpt lat="43.47548" lon="6.90766">
        <ele>463</ele>
        <time>2021-04-14T10:49:04+02:00</time>
      </trkpt>
      <trkpt lat="43.47557" lon="6.90758">
        <ele>467</ele>
        <time>2021-04-14T10:51:12+02:00</time>
      </trkpt>
      <trkpt lat="43.47563" lon="6.90748">
        <ele>468</ele>
        <time>2021-04-14T10:51:12+02:00</time>
      </trkpt>
      <trkpt lat="43.47561" lon="6.90736">
        <ele>469</ele>
        <time>2021-04-14T10:51:12+02:00</time>
      </trkpt>
      <trkpt lat="43.47562" lon="6.90722">
        <ele>471</ele>
        <time>2021-04-14T10:53:20+02:00</time>
      </trkpt>
      <trkpt lat="43.47569" lon="6.90715">
        <ele>471</ele>
        <time>2021-04-14T10:53:20+02:00</time>
      </trkpt>
      <trkpt lat="43.47571" lon="6.90701">
        <ele>471</ele>
        <time>2021-04-14T10:53:20+02:00</time>
      </trkpt>
      <trkpt lat="43.47568" lon="6.90689">
        <ele>473</ele>
        <time>2021-04-14T10:55:28+02:00</time>
      </trkpt>
      <trkpt lat="43.47571" lon="6.90676">
        <ele>474</ele>
        <time>2021-04-14T10:55:28+02:00</time>
      </trkpt>
      <trkpt lat="43.47572" lon="6.90663">
        <ele>474</ele>
        <time>2021-04-14T10:55:28+02:00</time>
      </trkpt>
      <trkpt lat="43.4758" lon="6.90656">
        <ele>475</ele>
        <time>2021-04-14T10:55:28+02:00</time>
      </trkpt>
      <trkpt lat="43.47586" lon="6.90646">
        <ele>475</ele>
        <time>2021-04-14T10:57:36+02:00</time>
      </trkpt>
      <trkpt lat="43.47595" lon="6.90649">
        <ele>478</ele>
        <time>2021-04-14T10:57:36+02:00</time>
      </trkpt>
      <trkpt lat="43.476" lon="6.9066">
        <ele>479</ele>
        <time>2021-04-14T10:57:36+02:00</time>
      </trkpt>
      <trkpt lat="43.47603" lon="6.90672">
        <ele>483</ele>
        <time>2021-04-14T10:59:44+02:00</time>
      </trkpt>
      <trkpt lat="43.47605" lon="6.90684">
        <ele>486</ele>
        <time>2021-04-14T10:59:44+02:00</time>
      </trkpt>
      <trkpt lat="43.47613" lon="6.90676">
        <ele>487</ele>
        <time>2021-04-14T10:59:44+02:00</time>
      </trkpt>
      <trkpt lat="43.47618" lon="6.90665">
        <ele>488</ele>
        <time>2021-04-14T10:59:44+02:00</time>
      </trkpt>
      <trkpt lat="43.47625" lon="6.90656">
        <ele>489</ele>
        <time>2021-04-14T10:59:44+02:00</time>
      </trkpt>
      <trkpt lat="43.47623" lon="6.90643">
        <ele>493</ele>
        <time>2021-04-14T11:01:52+02:00</time>
      </trkpt>
      <trkpt lat="43.47627" lon="6.90632">
        <ele>494</ele>
        <time>2021-04-14T11:01:52+02:00</time>
      </trkpt>
      <trkpt lat="43.47627" lon="6.90619">
        <ele>495</ele>
        <time>2021-04-14T11:01:52+02:00</time>
      </trkpt>
      <trkpt lat="43.47634" lon="6.9061">
        <ele>496</ele>
        <time>2021-04-14T11:01:52+02:00</time>
      </trkpt>
      <trkpt lat="43.47639" lon="6.90599">
        <ele>497</ele>
        <time>2021-04-14T11:04:00+02:00</time>
      </trkpt>
      <trkpt lat="43.4764" lon="6.90585">
        <ele>498</ele>
        <time>2021-04-14T11:04:00+02:00</time>
      </trkpt>
      <trkpt lat="43.47646" lon="6.90575">
        <ele>498</ele>
        <time>2021-04-14T11:04:00+02:00</time>
      </trkpt>
      <trkpt lat="43.47652" lon="6.90566">
        <ele>499</ele>
        <time>2021-04-14T11:04:00+02:00</time>
      </trkpt>
      <trkpt lat="43.47656" lon="6.90555">
        <ele>499</ele>
        <time>2021-04-14T11:04:00+02:00</time>
      </trkpt>
      <trkpt lat="43.47658" lon="6.90543">
        <ele>500</ele>
        <time>2021-04-14T11:04:00+02:00</time>
      </trkpt>
      <trkpt lat="43.47665" lon="6.90534">
        <ele>500</ele>
        <time>2021-04-14T11:04:00+02:00</time>
      </trkpt>
      <trkpt lat="43.47673" lon="6.90525">
        <ele>500</ele>
        <time>2021-04-14T11:06:08+02:00</time>
      </trkpt>
      <trkpt lat="43.47681" lon="6.90522">
        <ele>501</ele>
        <time>2021-04-14T11:06:08+02:00</time>
      </trkpt>
      <trkpt lat="43.47691" lon="6.90523">
        <ele>502</ele>
        <time>2021-04-14T11:06:08+02:00</time>
      </trkpt>
      <trkpt lat="43.477" lon="6.90519">
        <ele>502</ele>
        <time>2021-04-14T11:06:08+02:00</time>
      </trkpt>
      <trkpt lat="43.47694" lon="6.90508">
        <ele>502</ele>
        <time>2021-04-14T11:06:08+02:00</time>
      </trkpt>
      <trkpt lat="43.47685" lon="6.90505">
        <ele>503</ele>
        <time>2021-04-14T11:06:08+02:00</time>
      </trkpt>
      <trkpt lat="43.47677" lon="6.90499">
        <ele>504</ele>
        <time>2021-04-14T11:06:08+02:00</time>
      </trkpt>
      <trkpt lat="43.47669" lon="6.90491">
        <ele>504</ele>
        <time>2021-04-14T11:06:08+02:00</time>
      </trkpt>
      <trkpt lat="43.47677" lon="6.90485">
        <ele>505</ele>
        <time>2021-04-14T11:08:16+02:00</time>
      </trkpt>
      <trkpt lat="43.47687" lon="6.90483">
        <ele>505</ele>
        <time>2021-04-14T11:08:16+02:00</time>
      </trkpt>
      <trkpt lat="43.47695" lon="6.90478">
        <ele>506</ele>
        <time>2021-04-14T11:08:16+02:00</time>
      </trkpt>
      <trkpt lat="43.47704" lon="6.90474">
        <ele>506</ele>
        <time>2021-04-14T11:08:16+02:00</time>
      </trkpt>
      <trkpt lat="43.47713" lon="6.90471">
        <ele>506</ele>
        <time>2021-04-14T11:08:16+02:00</time>
      </trkpt>
      <trkpt lat="43.47722" lon="6.9047">
        <ele>506</ele>
        <time>2021-04-14T11:08:16+02:00</time>
      </trkpt>
      <trkpt lat="43.47731" lon="6.90465">
        <ele>506</ele>
        <time>2021-04-14T11:08:16+02:00</time>
      </trkpt>
      <trkpt lat="43.4774" lon="6.90467">
        <ele>506</ele>
        <time>2021-04-14T11:08:16+02:00</time>
      </trkpt>
      <trkpt lat="43.47749" lon="6.9047">
        <ele>506</ele>
        <time>2021-04-14T11:10:24+02:00</time>
      </trkpt>
      <trkpt lat="43.47758" lon="6.90475">
        <ele>506</ele>
        <time>2021-04-14T11:10:24+02:00</time>
      </trkpt>
      <trkpt lat="43.47763" lon="6.90486">
        <ele>506</ele>
        <time>2021-04-14T11:10:24+02:00</time>
      </trkpt>
      <trkpt lat="43.47763" lon="6.90499">
        <ele>506</ele>
        <time>2021-04-14T11:10:24+02:00</time>
      </trkpt>
      <trkpt lat="43.47763" lon="6.90513">
        <ele>505</ele>
        <time>2021-04-14T11:10:24+02:00</time>
      </trkpt>
      <trkpt lat="43.47761" lon="6.90525">
        <ele>505</ele>
        <time>2021-04-14T11:10:24+02:00</time>
      </trkpt>
      <trkpt lat="43.47761" lon="6.90538">
        <ele>505</ele>
        <time>2021-04-14T11:10:24+02:00</time>
      </trkpt>
      <trkpt lat="43.47763" lon="6.90551">
        <ele>505</ele>
        <time>2021-04-14T11:10:24+02:00</time>
      </trkpt>
      <trkpt lat="43.47768" lon="6.9054">
        <ele>504</ele>
        <time>2021-04-14T11:12:32+02:00</time>
      </trkpt>
      <trkpt lat="43.47775" lon="6.90532">
        <ele>504</ele>
        <time>2021-04-14T11:12:32+02:00</time>
      </trkpt>
      <trkpt lat="43.47779" lon="6.90521">
        <ele>503</ele>
        <time>2021-04-14T11:14:40+02:00</time>
      </trkpt>
      <trkpt lat="43.47785" lon="6.90511">
        <ele>503</ele>
        <time>2021-04-14T11:14:40+02:00</time>
      </trkpt>
      <trkpt lat="43.47791" lon="6.905">
        <ele>502</ele>
        <time>2021-04-14T11:14:40+02:00</time>
      </trkpt>
      <trkpt lat="43.47794" lon="6.90488">
        <ele>502</ele>
        <time>2021-04-14T11:14:40+02:00</time>
      </trkpt>
      <trkpt lat="43.47796" lon="6.90476">
        <ele>502</ele>
        <time>2021-04-14T11:14:40+02:00</time>
      </trkpt>
      <trkpt lat="43.47796" lon="6.90462">
        <ele>501</ele>
        <time>2021-04-14T11:14:40+02:00</time>
      </trkpt>
      <trkpt lat="43.47799" lon="6.90449">
        <ele>501</ele>
        <time>2021-04-14T11:14:40+02:00</time>
      </trkpt>
      <trkpt lat="43.47799" lon="6.90437">
        <ele>501</ele>
        <time>2021-04-14T11:14:40+02:00</time>
      </trkpt>
      <trkpt lat="43.47795" lon="6.90425">
        <ele>501</ele>
        <time>2021-04-14T11:14:40+02:00</time>
      </trkpt>
      <trkpt lat="43.47804" lon="6.90424">
        <ele>501</ele>
        <time>2021-04-14T11:16:48+02:00</time>
      </trkpt>
      <trkpt lat="43.47812" lon="6.90428">
        <ele>500</ele>
        <time>2021-04-14T11:16:48+02:00</time>
      </trkpt>
      <trkpt lat="43.47817" lon="6.90439">
        <ele>500</ele>
        <time>2021-04-14T11:16:48+02:00</time>
      </trkpt>
      <trkpt lat="43.47821" lon="6.90427">
        <ele>500</ele>
        <time>2021-04-14T11:16:48+02:00</time>
      </trkpt>
      <trkpt lat="43.47829" lon="6.90422">
        <ele>500</ele>
        <time>2021-04-14T11:16:48+02:00</time>
      </trkpt>
      <trkpt lat="43.47833" lon="6.90434">
        <ele>499</ele>
        <time>2021-04-14T11:18:56+02:00</time>
      </trkpt>
      <trkpt lat="43.47841" lon="6.90442">
        <ele>499</ele>
        <time>2021-04-14T11:18:56+02:00</time>
      </trkpt>
      <trkpt lat="43.47841" lon="6.90454">
        <ele>498</ele>
        <time>2021-04-14T11:21:04+02:00</time>
      </trkpt>
      <trkpt lat="43.47841" lon="6.90441">
        <ele>497</ele>
        <time>2021-04-14T11:23:12+02:00</time>
      </trkpt>
      <trkpt lat="43.47845" lon="6.9043">
        <ele>497</ele>
        <time>2021-04-14T11:23:12+02:00</time>
      </trkpt>
      <trkpt lat="43.47849" lon="6.90418">
        <ele>496</ele>
        <time>2021-04-14T11:23:12+02:00</time>
      </trkpt>
      <trkpt lat="43.47854" lon="6.90406">
        <ele>496</ele>
        <time>2021-04-14T11:23:12+02:00</time>
      </trkpt>
      <trkpt lat="43.47856" lon="6.90394">
        <ele>496</ele>
        <time>2021-04-14T11:23:12+02:00</time>
      </trkpt>
      <trkpt lat="43.47859" lon="6.90406">
        <ele>495</ele>
        <time>2021-04-14T11:23:12+02:00</time>
      </trkpt>
      <trkpt lat="43.47863" lon="6.90395">
        <ele>495</ele>
        <time>2021-04-14T11:23:12+02:00</time>
      </trkpt>
      <trkpt lat="43.4787" lon="6.90386">
        <ele>494</ele>
        <time>2021-04-14T11:23:12+02:00</time>
      </trkpt>
      <trkpt lat="43.47876" lon="6.90377">
        <ele>494</ele>
        <time>2021-04-14T11:23:12+02:00</time>
      </trkpt>
      <trkpt lat="43.47884" lon="6.90369">
        <ele>493</ele>
        <time>2021-04-14T11:25:20+02:00</time>
      </trkpt>
      <trkpt lat="43.4789" lon="6.9036">
        <ele>493</ele>
        <time>2021-04-14T11:25:20+02:00</time>
      </trkpt>
      <trkpt lat="43.47899" lon="6.90356">
        <ele>493</ele>
        <time>2021-04-14T11:25:20+02:00</time>
      </trkpt>
      <trkpt lat="43.47908" lon="6.90352">
        <ele>492</ele>
        <time>2021-04-14T11:25:20+02:00</time>
      </trkpt>
      <trkpt lat="43.47917" lon="6.90347">
        <ele>492</ele>
        <time>2021-04-14T11:25:20+02:00</time>
      </trkpt>
      <trkpt lat="43.47926" lon="6.90348">
        <ele>491</ele>
        <time>2021-04-14T11:25:20+02:00</time>
      </trkpt>
      <trkpt lat="43.47936" lon="6.90347">
        <ele>489</ele>
        <time>2021-04-14T11:25:20+02:00</time>
      </trkpt>
      <trkpt lat="43.47932" lon="6.90336">
        <ele>481</ele>
        <time>2021-04-14T11:29:36+02:00</time>
      </trkpt>
      <trkpt lat="43.47929" lon="6.90323">
        <ele>477</ele>
        <time>2021-04-14T11:29:36+02:00</time>
      </trkpt>
      <trkpt lat="43.4792" lon="6.9032">
        <ele>474</ele>
        <time>2021-04-14T11:29:36+02:00</time>
      </trkpt>
      <trkpt lat="43.4791" lon="6.9032">
        <ele>473</ele>
        <time>2021-04-14T11:29:36+02:00</time>
      </trkpt>
      <trkpt lat="43.47901" lon="6.90316">
        <ele>471</ele>
        <time>2021-04-14T11:31:44+02:00</time>
      </trkpt>
      <trkpt lat="43.47892" lon="6.90315">
        <ele>469</ele>
        <time>2021-04-14T11:31:44+02:00</time>
      </trkpt>
      <trkpt lat="43.47883" lon="6.90315">
        <ele>463</ele>
        <time>2021-04-14T11:31:44+02:00</time>
      </trkpt>
      <trkpt lat="43.47873" lon="6.90311">
        <ele>461</ele>
        <time>2021-04-14T11:31:44+02:00</time>
      </trkpt>
      <trkpt lat="43.47865" lon="6.90305">
        <ele>459</ele>
        <time>2021-04-14T11:33:52+02:00</time>
      </trkpt>
      <trkpt lat="43.47856" lon="6.903">
        <ele>457</ele>
        <time>2021-04-14T11:33:52+02:00</time>
      </trkpt>
      <trkpt lat="43.47847" lon="6.90299">
        <ele>455</ele>
        <time>2021-04-14T11:33:52+02:00</time>
      </trkpt>
      <trkpt lat="43.47838" lon="6.90295">
        <ele>453</ele>
        <time>2021-04-14T11:33:52+02:00</time>
      </trkpt>
      <trkpt lat="43.47829" lon="6.90293">
        <ele>452</ele>
        <time>2021-04-14T11:33:52+02:00</time>
      </trkpt>
      <trkpt lat="43.47819" lon="6.90295">
        <ele>451</ele>
        <time>2021-04-14T11:33:52+02:00</time>
      </trkpt>
      <trkpt lat="43.47809" lon="6.90296">
        <ele>450</ele>
        <time>2021-04-14T11:33:52+02:00</time>
      </trkpt>
      <trkpt lat="43.47799" lon="6.90297">
        <ele>449</ele>
        <time>2021-04-14T11:33:52+02:00</time>
      </trkpt>
      <trkpt lat="43.4779" lon="6.90294">
        <ele>448</ele>
        <time>2021-04-14T11:33:52+02:00</time>
      </trkpt>
      <trkpt lat="43.47781" lon="6.90295">
        <ele>447</ele>
        <time>2021-04-14T11:33:52+02:00</time>
      </trkpt>
      <trkpt lat="43.47771" lon="6.90298">
        <ele>447</ele>
        <time>2021-04-14T11:36:00+02:00</time>
      </trkpt>
      <trkpt lat="43.47762" lon="6.90297">
        <ele>446</ele>
        <time>2021-04-14T11:36:00+02:00</time>
      </trkpt>
      <trkpt lat="43.47752" lon="6.90295">
        <ele>445</ele>
        <time>2021-04-14T11:36:00+02:00</time>
      </trkpt>
      <trkpt lat="43.47743" lon="6.90296">
        <ele>445</ele>
        <time>2021-04-14T11:36:00+02:00</time>
      </trkpt>
      <trkpt lat="43.47734" lon="6.90291">
        <ele>444</ele>
        <time>2021-04-14T11:36:00+02:00</time>
      </trkpt>
      <trkpt lat="43.47726" lon="6.90284">
        <ele>443</ele>
        <time>2021-04-14T11:36:00+02:00</time>
      </trkpt>
      <trkpt lat="43.47721" lon="6.90272">
        <ele>443</ele>
        <time>2021-04-14T11:36:00+02:00</time>
      </trkpt>
      <trkpt lat="43.47719" lon="6.90259">
        <ele>442</ele>
        <time>2021-04-14T11:36:00+02:00</time>
      </trkpt>
      <trkpt lat="43.47711" lon="6.9025">
        <ele>441</ele>
        <time>2021-04-14T11:36:00+02:00</time>
      </trkpt>
      <trkpt lat="43.47705" lon="6.9024">
        <ele>440</ele>
        <time>2021-04-14T11:36:00+02:00</time>
      </trkpt>
      <trkpt lat="43.47702" lon="6.90228">
        <ele>440</ele>
        <time>2021-04-14T11:36:00+02:00</time>
      </trkpt>
      <trkpt lat="43.47699" lon="6.90216">
        <ele>439</ele>
        <time>2021-04-14T11:36:00+02:00</time>
      </trkpt>
      <trkpt lat="43.47697" lon="6.90204">
        <ele>438</ele>
        <time>2021-04-14T11:38:08+02:00</time>
      </trkpt>
      <trkpt lat="43.47699" lon="6.90192">
        <ele>437</ele>
        <time>2021-04-14T11:38:08+02:00</time>
      </trkpt>
      <trkpt lat="43.47699" lon="6.90179">
        <ele>436</ele>
        <time>2021-04-14T11:38:08+02:00</time>
      </trkpt>
      <trkpt lat="43.47691" lon="6.90172">
        <ele>433</ele>
        <time>2021-04-14T11:38:08+02:00</time>
      </trkpt>
      <trkpt lat="43.47687" lon="6.90159">
        <ele>432</ele>
        <time>2021-04-14T11:38:08+02:00</time>
      </trkpt>
      <trkpt lat="43.47685" lon="6.90147">
        <ele>431</ele>
        <time>2021-04-14T11:38:08+02:00</time>
      </trkpt>
      <trkpt lat="43.47677" lon="6.90139">
        <ele>430</ele>
        <time>2021-04-14T11:40:16+02:00</time>
      </trkpt>
      <trkpt lat="43.47671" lon="6.90129">
        <ele>429</ele>
        <time>2021-04-14T11:40:16+02:00</time>
      </trkpt>
      <trkpt lat="43.47665" lon="6.90119">
        <ele>428</ele>
        <time>2021-04-14T11:40:16+02:00</time>
      </trkpt>
      <trkpt lat="43.47663" lon="6.90107">
        <ele>427</ele>
        <time>2021-04-14T11:40:16+02:00</time>
      </trkpt>
      <trkpt lat="43.4766" lon="6.90095">
        <ele>427</ele>
        <time>2021-04-14T11:40:16+02:00</time>
      </trkpt>
      <trkpt lat="43.47651" lon="6.90087">
        <ele>426</ele>
        <time>2021-04-14T11:40:16+02:00</time>
      </trkpt>
      <trkpt lat="43.47647" lon="6.90076">
        <ele>425</ele>
        <time>2021-04-14T11:40:16+02:00</time>
      </trkpt>
      <trkpt lat="43.47644" lon="6.90063">
        <ele>425</ele>
        <time>2021-04-14T11:40:16+02:00</time>
      </trkpt>
      <trkpt lat="43.47639" lon="6.90052">
        <ele>423</ele>
        <time>2021-04-14T11:42:24+02:00</time>
      </trkpt>
      <trkpt lat="43.4763" lon="6.90042">
        <ele>422</ele>
        <time>2021-04-14T11:42:24+02:00</time>
      </trkpt>
      <trkpt lat="43.47624" lon="6.90032">
        <ele>421</ele>
        <time>2021-04-14T11:42:24+02:00</time>
      </trkpt>
      <trkpt lat="43.47621" lon="6.9002">
        <ele>421</ele>
        <time>2021-04-14T11:42:24+02:00</time>
      </trkpt>
      <trkpt lat="43.47621" lon="6.90007">
        <ele>420</ele>
        <time>2021-04-14T11:42:24+02:00</time>
      </trkpt>
      <trkpt lat="43.47618" lon="6.89995">
        <ele>420</ele>
        <time>2021-04-14T11:42:24+02:00</time>
      </trkpt>
      <trkpt lat="43.47615" lon="6.89982">
        <ele>419</ele>
        <time>2021-04-14T11:42:24+02:00</time>
      </trkpt>
      <trkpt lat="43.4761" lon="6.89969">
        <ele>419</ele>
        <time>2021-04-14T11:42:24+02:00</time>
      </trkpt>
      <trkpt lat="43.47606" lon="6.89958">
        <ele>418</ele>
        <time>2021-04-14T11:42:24+02:00</time>
      </trkpt>
      <trkpt lat="43.47605" lon="6.89944">
        <ele>418</ele>
        <time>2021-04-14T11:42:24+02:00</time>
      </trkpt>
      <trkpt lat="43.47607" lon="6.89931">
        <ele>417</ele>
        <time>2021-04-14T11:42:24+02:00</time>
      </trkpt>
      <trkpt lat="43.47612" lon="6.8992">
        <ele>417</ele>
        <time>2021-04-14T11:42:24+02:00</time>
      </trkpt>
      <trkpt lat="43.47615" lon="6.89907">
        <ele>416</ele>
        <time>2021-04-14T11:44:32+02:00</time>
      </trkpt>
      <trkpt lat="43.47623" lon="6.89901">
        <ele>414</ele>
        <time>2021-04-14T11:44:32+02:00</time>
      </trkpt>
      <trkpt lat="43.47614" lon="6.899">
        <ele>412</ele>
        <time>2021-04-14T11:46:40+02:00</time>
      </trkpt>
      <trkpt lat="43.47618" lon="6.89887">
        <ele>409</ele>
        <time>2021-04-14T11:46:40+02:00</time>
      </trkpt>
      <trkpt lat="43.47623" lon="6.89877">
        <ele>409</ele>
        <time>2021-04-14T11:48:48+02:00</time>
      </trkpt>
      <trkpt lat="43.47622" lon="6.89864">
        <ele>408</ele>
        <time>2021-04-14T11:48:48+02:00</time>
      </trkpt>
      <trkpt lat="43.47623" lon="6.89851">
        <ele>408</ele>
        <time>2021-04-14T11:48:48+02:00</time>
      </trkpt>
      <trkpt lat="43.47624" lon="6.89838">
        <ele>408</ele>
        <time>2021-04-14T11:48:48+02:00</time>
      </trkpt>
      <trkpt lat="43.47626" lon="6.89826">
        <ele>408</ele>
        <time>2021-04-14T11:48:48+02:00</time>
      </trkpt>
      <trkpt lat="43.47622" lon="6.89815">
        <ele>407</ele>
        <time>2021-04-14T11:48:48+02:00</time>
      </trkpt>
      <trkpt lat="43.47619" lon="6.89802">
        <ele>406</ele>
        <time>2021-04-14T11:48:48+02:00</time>
      </trkpt>
      <trkpt lat="43.47614" lon="6.8979">
        <ele>406</ele>
        <time>2021-04-14T11:48:48+02:00</time>
      </trkpt>
      <trkpt lat="43.47614" lon="6.89776">
        <ele>406</ele>
        <time>2021-04-14T11:48:48+02:00</time>
      </trkpt>
      <trkpt lat="43.4761" lon="6.89763">
        <ele>405</ele>
        <time>2021-04-14T11:50:56+02:00</time>
      </trkpt>
      <trkpt lat="43.47609" lon="6.89751">
        <ele>405</ele>
        <time>2021-04-14T11:50:56+02:00</time>
      </trkpt>
      <trkpt lat="43.47611" lon="6.89738">
        <ele>405</ele>
        <time>2021-04-14T11:50:56+02:00</time>
      </trkpt>
      <trkpt lat="43.47617" lon="6.89727">
        <ele>405</ele>
        <time>2021-04-14T11:50:56+02:00</time>
      </trkpt>
      <trkpt lat="43.47628" lon="6.89724">
        <ele>404</ele>
        <time>2021-04-14T11:50:56+02:00</time>
      </trkpt>
      <trkpt lat="43.47638" lon="6.89723">
        <ele>404</ele>
        <time>2021-04-14T11:50:56+02:00</time>
      </trkpt>
      <trkpt lat="43.47631" lon="6.89713">
        <ele>403</ele>
        <time>2021-04-14T11:50:56+02:00</time>
      </trkpt>
      <trkpt lat="43.47626" lon="6.89702">
        <ele>402</ele>
        <time>2021-04-14T11:50:56+02:00</time>
      </trkpt>
      <trkpt lat="43.4762" lon="6.89691">
        <ele>402</ele>
        <time>2021-04-14T11:50:56+02:00</time>
      </trkpt>
      <trkpt lat="43.47619" lon="6.89678">
        <ele>401</ele>
        <time>2021-04-14T11:53:04+02:00</time>
      </trkpt>
      <trkpt lat="43.47618" lon="6.89665">
        <ele>400</ele>
        <time>2021-04-14T11:53:04+02:00</time>
      </trkpt>
      <trkpt lat="43.47619" lon="6.89652">
        <ele>400</ele>
        <time>2021-04-14T11:53:04+02:00</time>
      </trkpt>
      <trkpt lat="43.47624" lon="6.8964">
        <ele>400</ele>
        <time>2021-04-14T11:53:04+02:00</time>
      </trkpt>
      <trkpt lat="43.47616" lon="6.89632">
        <ele>399</ele>
        <time>2021-04-14T11:53:04+02:00</time>
      </trkpt>
      <trkpt lat="43.47608" lon="6.89639">
        <ele>399</ele>
        <time>2021-04-14T11:53:04+02:00</time>
      </trkpt>
      <trkpt lat="43.47599" lon="6.89643">
        <ele>399</ele>
        <time>2021-04-14T11:53:04+02:00</time>
      </trkpt>
      <trkpt lat="43.4759" lon="6.89644">
        <ele>399</ele>
        <time>2021-04-14T11:53:04+02:00</time>
      </trkpt>
      <trkpt lat="43.47581" lon="6.89645">
        <ele>399</ele>
        <time>2021-04-14T11:53:04+02:00</time>
      </trkpt>
      <trkpt lat="43.47573" lon="6.89651">
        <ele>399</ele>
        <time>2021-04-14T11:53:04+02:00</time>
      </trkpt>
      <trkpt lat="43.47565" lon="6.89659">
        <ele>400</ele>
        <time>2021-04-14T11:53:04+02:00</time>
      </trkpt>
      <trkpt lat="43.47557" lon="6.89665">
        <ele>400</ele>
        <time>2021-04-14T11:55:12+02:00</time>
      </trkpt>
      <trkpt lat="43.47551" lon="6.89673">
        <ele>400</ele>
        <time>2021-04-14T11:55:12+02:00</time>
      </trkpt>
      <trkpt lat="43.47541" lon="6.89676">
        <ele>400</ele>
        <time>2021-04-14T11:55:12+02:00</time>
      </trkpt>
      <trkpt lat="43.47534" lon="6.89685">
        <ele>400</ele>
        <time>2021-04-14T11:55:12+02:00</time>
      </trkpt>
      <trkpt lat="43.47524" lon="6.89684">
        <ele>400</ele>
        <time>2021-04-14T11:55:12+02:00</time>
      </trkpt>
      <trkpt lat="43.47514" lon="6.89687">
        <ele>400</ele>
        <time>2021-04-14T11:55:12+02:00</time>
      </trkpt>
      <trkpt lat="43.47505" lon="6.89688">
        <ele>400</ele>
        <time>2021-04-14T11:55:12+02:00</time>
      </trkpt>
      <trkpt lat="43.47495" lon="6.89686">
        <ele>400</ele>
        <time>2021-04-14T11:57:20+02:00</time>
      </trkpt>
      <trkpt lat="43.47486" lon="6.8969">
        <ele>400</ele>
        <time>2021-04-14T11:57:20+02:00</time>
      </trkpt>
      <trkpt lat="43.4749" lon="6.89678">
        <ele>400</ele>
        <time>2021-04-14T11:57:20+02:00</time>
      </trkpt>
      <trkpt lat="43.47497" lon="6.89669">
        <ele>399</ele>
        <time>2021-04-14T11:57:20+02:00</time>
      </trkpt>
      <trkpt lat="43.47504" lon="6.89661">
        <ele>399</ele>
        <time>2021-04-14T11:57:20+02:00</time>
      </trkpt>
      <trkpt lat="43.47511" lon="6.8965">
        <ele>399</ele>
        <time>2021-04-14T11:57:20+02:00</time>
      </trkpt>
      <trkpt lat="43.47515" lon="6.89639">
        <ele>399</ele>
        <time>2021-04-14T11:57:20+02:00</time>
      </trkpt>
      <trkpt lat="43.4752" lon="6.89627">
        <ele>399</ele>
        <time>2021-04-14T11:57:20+02:00</time>
      </trkpt>
      <trkpt lat="43.47525" lon="6.89615">
        <ele>399</ele>
        <time>2021-04-14T11:57:20+02:00</time>
      </trkpt>
      <trkpt lat="43.47531" lon="6.89605">
        <ele>399</ele>
        <time>2021-04-14T11:57:20+02:00</time>
      </trkpt>
      <trkpt lat="43.47539" lon="6.89599">
        <ele>398</ele>
        <time>2021-04-14T11:57:20+02:00</time>
      </trkpt>
      <trkpt lat="43.47542" lon="6.89587">
        <ele>398</ele>
        <time>2021-04-14T11:57:20+02:00</time>
      </trkpt>
      <trkpt lat="43.47545" lon="6.89574">
        <ele>398</ele>
        <time>2021-04-14T11:59:28+02:00</time>
      </trkpt>
      <trkpt lat="43.47549" lon="6.89562">
        <ele>398</ele>
        <time>2021-04-14T11:59:28+02:00</time>
      </trkpt>
      <trkpt lat="43.4755" lon="6.89549">
        <ele>397</ele>
        <time>2021-04-14T11:59:28+02:00</time>
      </trkpt>
      <trkpt lat="43.47552" lon="6.89536">
        <ele>397</ele>
        <time>2021-04-14T11:59:28+02:00</time>
      </trkpt>
      <trkpt lat="43.47555" lon="6.89524">
        <ele>396</ele>
        <time>2021-04-14T11:59:28+02:00</time>
      </trkpt>
      <trkpt lat="43.47546" lon="6.8953">
        <ele>393</ele>
        <time>2021-04-14T11:59:28+02:00</time>
      </trkpt>
      <trkpt lat="43.4754" lon="6.89541">
        <ele>392</ele>
        <time>2021-04-14T12:01:36+02:00</time>
      </trkpt>
      <trkpt lat="43.47535" lon="6.89551">
        <ele>392</ele>
        <time>2021-04-14T12:01:36+02:00</time>
      </trkpt>
      <trkpt lat="43.47526" lon="6.89555">
        <ele>391</ele>
        <time>2021-04-14T12:01:36+02:00</time>
      </trkpt>
      <trkpt lat="43.47519" lon="6.89564">
        <ele>391</ele>
        <time>2021-04-14T12:01:36+02:00</time>
      </trkpt>
      <trkpt lat="43.47511" lon="6.89571">
        <ele>390</ele>
        <time>2021-04-14T12:01:36+02:00</time>
      </trkpt>
      <trkpt lat="43.47501" lon="6.89574">
        <ele>389</ele>
        <time>2021-04-14T12:01:36+02:00</time>
      </trkpt>
      <trkpt lat="43.47492" lon="6.8958">
        <ele>389</ele>
        <time>2021-04-14T12:01:36+02:00</time>
      </trkpt>
      <trkpt lat="43.47484" lon="6.89585">
        <ele>388</ele>
        <time>2021-04-14T12:01:36+02:00</time>
      </trkpt>
      <trkpt lat="43.47474" lon="6.89583">
        <ele>388</ele>
        <time>2021-04-14T12:01:36+02:00</time>
      </trkpt>
      <trkpt lat="43.47466" lon="6.89589">
        <ele>388</ele>
        <time>2021-04-14T12:01:36+02:00</time>
      </trkpt>
      <trkpt lat="43.47456" lon="6.89591">
        <ele>387</ele>
        <time>2021-04-14T12:01:36+02:00</time>
      </trkpt>
      <trkpt lat="43.47447" lon="6.89596">
        <ele>387</ele>
        <time>2021-04-14T12:01:36+02:00</time>
      </trkpt>
      <trkpt lat="43.47437" lon="6.89599">
        <ele>387</ele>
        <time>2021-04-14T12:03:44+02:00</time>
      </trkpt>
      <trkpt lat="43.47428" lon="6.896">
        <ele>386</ele>
        <time>2021-04-14T12:03:44+02:00</time>
      </trkpt>
      <trkpt lat="43.47419" lon="6.89603">
        <ele>386</ele>
        <time>2021-04-14T12:03:44+02:00</time>
      </trkpt>
      <trkpt lat="43.47423" lon="6.89591">
        <ele>384</ele>
        <time>2021-04-14T12:03:44+02:00</time>
      </trkpt>
      <trkpt lat="43.47432" lon="6.89584">
        <ele>384</ele>
        <time>2021-04-14T12:03:44+02:00</time>
      </trkpt>
      <trkpt lat="43.47439" lon="6.89575">
        <ele>383</ele>
        <time>2021-04-14T12:03:44+02:00</time>
      </trkpt>
      <trkpt lat="43.47444" lon="6.89565">
        <ele>383</ele>
        <time>2021-04-14T12:03:44+02:00</time>
      </trkpt>
      <trkpt lat="43.4745" lon="6.89555">
        <ele>381</ele>
        <time>2021-04-14T12:03:44+02:00</time>
      </trkpt>
      <trkpt lat="43.47454" lon="6.89544">
        <ele>380</ele>
        <time>2021-04-14T12:05:52+02:00</time>
      </trkpt>
      <trkpt lat="43.4746" lon="6.89534">
        <ele>380</ele>
        <time>2021-04-14T12:05:52+02:00</time>
      </trkpt>
      <trkpt lat="43.47465" lon="6.89524">
        <ele>379</ele>
        <time>2021-04-14T12:05:52+02:00</time>
      </trkpt>
      <trkpt lat="43.47476" lon="6.89518">
        <ele>378</ele>
        <time>2021-04-14T12:05:52+02:00</time>
      </trkpt>
      <trkpt lat="43.47483" lon="6.89508">
        <ele>377</ele>
        <time>2021-04-14T12:05:52+02:00</time>
      </trkpt>
      <trkpt lat="43.47491" lon="6.89503">
        <ele>376</ele>
        <time>2021-04-14T12:05:52+02:00</time>
      </trkpt>
      <trkpt lat="43.47485" lon="6.89495">
        <ele>375</ele>
        <time>2021-04-14T12:05:52+02:00</time>
      </trkpt>
      <trkpt lat="43.47481" lon="6.89506">
        <ele>374</ele>
        <time>2021-04-14T12:05:52+02:00</time>
      </trkpt>
      <trkpt lat="43.47471" lon="6.89515">
        <ele>368</ele>
        <time>2021-04-14T12:08:00+02:00</time>
      </trkpt>
      <trkpt lat="43.47465" lon="6.89528">
        <ele>367</ele>
        <time>2021-04-14T12:08:00+02:00</time>
      </trkpt>
      <trkpt lat="43.47456" lon="6.89531">
        <ele>366</ele>
        <time>2021-04-14T12:08:00+02:00</time>
      </trkpt>
      <trkpt lat="43.47447" lon="6.89535">
        <ele>362</ele>
        <time>2021-04-14T12:08:00+02:00</time>
      </trkpt>
      <trkpt lat="43.47438" lon="6.8954">
        <ele>360</ele>
        <time>2021-04-14T12:08:00+02:00</time>
      </trkpt>
      <trkpt lat="43.47429" lon="6.89544">
        <ele>358</ele>
        <time>2021-04-14T12:08:00+02:00</time>
      </trkpt>
      <trkpt lat="43.4742" lon="6.89539">
        <ele>357</ele>
        <time>2021-04-14T12:08:00+02:00</time>
      </trkpt>
      <trkpt lat="43.47411" lon="6.89537">
        <ele>356</ele>
        <time>2021-04-14T12:08:00+02:00</time>
      </trkpt>
      <trkpt lat="43.47405" lon="6.89527">
        <ele>355</ele>
        <time>2021-04-14T12:10:08+02:00</time>
      </trkpt>
      <trkpt lat="43.47401" lon="6.89516">
        <ele>353</ele>
        <time>2021-04-14T12:10:08+02:00</time>
      </trkpt>
      <trkpt lat="43.47396" lon="6.89504">
        <ele>352</ele>
        <time>2021-04-14T12:10:08+02:00</time>
      </trkpt>
      <trkpt lat="43.4739" lon="6.89493">
        <ele>351</ele>
        <time>2021-04-14T12:10:08+02:00</time>
      </trkpt>
      <trkpt lat="43.47385" lon="6.89483">
        <ele>350</ele>
        <time>2021-04-14T12:10:08+02:00</time>
      </trkpt>
      <trkpt lat="43.47381" lon="6.89471">
        <ele>349</ele>
        <time>2021-04-14T12:10:08+02:00</time>
      </trkpt>
      <trkpt lat="43.47376" lon="6.8946">
        <ele>347</ele>
        <time>2021-04-14T12:10:08+02:00</time>
      </trkpt>
      <trkpt lat="43.47371" lon="6.8945">
        <ele>346</ele>
        <time>2021-04-14T12:10:08+02:00</time>
      </trkpt>
      <trkpt lat="43.47367" lon="6.89438">
        <ele>344</ele>
        <time>2021-04-14T12:10:08+02:00</time>
      </trkpt>
      <trkpt lat="43.47357" lon="6.89438">
        <ele>340</ele>
        <time>2021-04-14T12:12:16+02:00</time>
      </trkpt>
      <trkpt lat="43.47353" lon="6.89452">
        <ele>336</ele>
        <time>2021-04-14T12:12:16+02:00</time>
      </trkpt>
      <trkpt lat="43.47363" lon="6.8945">
        <ele>335</ele>
        <time>2021-04-14T12:12:16+02:00</time>
      </trkpt>
      <trkpt lat="43.47371" lon="6.89457">
        <ele>335</ele>
        <time>2021-04-14T12:12:16+02:00</time>
      </trkpt>
      <trkpt lat="43.4738" lon="6.89456">
        <ele>334</ele>
        <time>2021-04-14T12:12:16+02:00</time>
      </trkpt>
      <trkpt lat="43.47375" lon="6.89428">
        <ele>334</ele>
        <time>2021-04-14T12:12:16+02:00</time>
      </trkpt>
      <trkpt lat="43.47383" lon="6.89417">
        <ele>334</ele>
        <time>2021-04-14T12:12:16+02:00</time>
      </trkpt>
      <trkpt lat="43.47375" lon="6.8941">
        <ele>333</ele>
        <time>2021-04-14T12:14:24+02:00</time>
      </trkpt>
      <trkpt lat="43.47365" lon="6.89414">
        <ele>333</ele>
        <time>2021-04-14T12:14:24+02:00</time>
      </trkpt>
      <trkpt lat="43.47362" lon="6.89431">
        <ele>333</ele>
        <time>2021-04-14T12:14:24+02:00</time>
      </trkpt>
      <trkpt lat="43.47359" lon="6.8945">
        <ele>333</ele>
        <time>2021-04-14T12:14:24+02:00</time>
      </trkpt>
      <trkpt lat="43.47359" lon="6.89467">
        <ele>333</ele>
        <time>2021-04-14T12:14:24+02:00</time>
      </trkpt>
      <trkpt lat="43.4736" lon="6.89482">
        <ele>333</ele>
        <time>2021-04-14T12:14:24+02:00</time>
      </trkpt>
      <trkpt lat="43.47361" lon="6.89495">
        <ele>333</ele>
        <time>2021-04-14T12:14:24+02:00</time>
      </trkpt>
      <trkpt lat="43.47365" lon="6.89473">
        <ele>333</ele>
        <time>2021-04-14T12:14:24+02:00</time>
      </trkpt>
      <trkpt lat="43.47367" lon="6.8946">
        <ele>333</ele>
        <time>2021-04-14T12:14:24+02:00</time>
      </trkpt>
      <trkpt lat="43.47374" lon="6.89474">
        <ele>333</ele>
        <time>2021-04-14T12:16:32+02:00</time>
      </trkpt>
      <trkpt lat="43.47371" lon="6.89461">
        <ele>333</ele>
        <time>2021-04-14T12:16:32+02:00</time>
      </trkpt>
      <trkpt lat="43.47373" lon="6.89446">
        <ele>332</ele>
        <time>2021-04-14T12:16:32+02:00</time>
      </trkpt>
      <trkpt lat="43.47367" lon="6.89436">
        <ele>332</ele>
        <time>2021-04-14T12:16:32+02:00</time>
      </trkpt>
      <trkpt lat="43.47366" lon="6.89423">
        <ele>331</ele>
        <time>2021-04-14T12:18:40+02:00</time>
      </trkpt>
      <trkpt lat="43.47376" lon="6.89423">
        <ele>331</ele>
        <time>2021-04-14T12:18:40+02:00</time>
      </trkpt>
      <trkpt lat="43.47367" lon="6.89421">
        <ele>331</ele>
        <time>2021-04-14T12:18:40+02:00</time>
      </trkpt>
      <trkpt lat="43.47358" lon="6.89426">
        <ele>331</ele>
        <time>2021-04-14T12:20:48+02:00</time>
      </trkpt>
      <trkpt lat="43.47362" lon="6.89441">
        <ele>331</ele>
        <time>2021-04-14T12:22:56+02:00</time>
      </trkpt>
      <trkpt lat="43.47372" lon="6.89441">
        <ele>331</ele>
        <time>2021-04-14T12:22:56+02:00</time>
      </trkpt>
      <trkpt lat="43.47367" lon="6.89452">
        <ele>331</ele>
        <time>2021-04-14T12:22:56+02:00</time>
      </trkpt>
      <trkpt lat="43.47367" lon="6.89439">
        <ele>331</ele>
        <time>2021-04-14T12:22:56+02:00</time>
      </trkpt>
      <trkpt lat="43.47364" lon="6.89428">
        <ele>331</ele>
        <time>2021-04-14T12:22:56+02:00</time>
      </trkpt>
      <trkpt lat="43.47357" lon="6.89418">
        <ele>331</ele>
        <time>2021-04-14T12:22:56+02:00</time>
      </trkpt>
      <trkpt lat="43.47366" lon="6.89413">
        <ele>330</ele>
        <time>2021-04-14T12:25:04+02:00</time>
      </trkpt>
      <trkpt lat="43.47379" lon="6.89418">
        <ele>330</ele>
        <time>2021-04-14T12:25:04+02:00</time>
      </trkpt>
      <trkpt lat="43.4737" lon="6.89422">
        <ele>330</ele>
        <time>2021-04-14T12:25:04+02:00</time>
      </trkpt>
      <trkpt lat="43.47376" lon="6.89431">
        <ele>330</ele>
        <time>2021-04-14T12:27:12+02:00</time>
      </trkpt>
      <trkpt lat="43.47371" lon="6.89419">
        <ele>330</ele>
        <time>2021-04-14T12:27:12+02:00</time>
      </trkpt>
      <trkpt lat="43.47363" lon="6.89413">
        <ele>329</ele>
        <time>2021-04-14T12:29:20+02:00</time>
      </trkpt>
      <trkpt lat="43.47369" lon="6.89422">
        <ele>329</ele>
        <time>2021-04-14T12:29:20+02:00</time>
      </trkpt>
      <trkpt lat="43.47371" lon="6.89436">
        <ele>327</ele>
        <time>2021-04-14T12:31:28+02:00</time>
      </trkpt>
      <trkpt lat="43.47361" lon="6.89432">
        <ele>325</ele>
        <time>2021-04-14T12:33:36+02:00</time>
      </trkpt>
      <trkpt lat="43.47367" lon="6.89442">
        <ele>323</ele>
        <time>2021-04-14T12:33:36+02:00</time>
      </trkpt>
      <trkpt lat="43.47357" lon="6.8944">
        <ele>323</ele>
        <time>2021-04-14T12:33:36+02:00</time>
      </trkpt>
      <trkpt lat="43.47348" lon="6.89432">
        <ele>323</ele>
        <time>2021-04-14T12:33:36+02:00</time>
      </trkpt>
      <trkpt lat="43.47343" lon="6.89443">
        <ele>321</ele>
        <time>2021-04-14T12:35:44+02:00</time>
      </trkpt>
      <trkpt lat="43.47348" lon="6.89433">
        <ele>315</ele>
        <time>2021-04-14T12:40:00+02:00</time>
      </trkpt>
      <trkpt lat="43.47358" lon="6.89438">
        <ele>314</ele>
        <time>2021-04-14T12:42:08+02:00</time>
      </trkpt>
      <trkpt lat="43.47366" lon="6.89433">
        <ele>314</ele>
        <time>2021-04-14T12:42:08+02:00</time>
      </trkpt>
      <trkpt lat="43.47358" lon="6.8944">
        <ele>314</ele>
        <time>2021-04-14T12:42:08+02:00</time>
      </trkpt>
      <trkpt lat="43.47349" lon="6.89437">
        <ele>314</ele>
        <time>2021-04-14T12:44:16+02:00</time>
      </trkpt>
      <trkpt lat="43.47347" lon="6.89425">
        <ele>314</ele>
        <time>2021-04-14T12:44:16+02:00</time>
      </trkpt>
      <trkpt lat="43.47355" lon="6.89429">
        <ele>314</ele>
        <time>2021-04-14T12:44:16+02:00</time>
      </trkpt>
      <trkpt lat="43.47359" lon="6.89441">
        <ele>314</ele>
        <time>2021-04-14T12:44:16+02:00</time>
      </trkpt>
      <trkpt lat="43.47365" lon="6.8945">
        <ele>313</ele>
        <time>2021-04-14T12:44:16+02:00</time>
      </trkpt>
      <trkpt lat="43.47373" lon="6.89457">
        <ele>313</ele>
        <time>2021-04-14T12:46:24+02:00</time>
      </trkpt>
      <trkpt lat="43.4738" lon="6.89465">
        <ele>312</ele>
        <time>2021-04-14T12:46:24+02:00</time>
      </trkpt>
      <trkpt lat="43.47383" lon="6.89478">
        <ele>311</ele>
        <time>2021-04-14T12:46:24+02:00</time>
      </trkpt>
      <trkpt lat="43.47389" lon="6.89489">
        <ele>311</ele>
        <time>2021-04-14T12:46:24+02:00</time>
      </trkpt>
      <trkpt lat="43.47395" lon="6.89498">
        <ele>310</ele>
        <time>2021-04-14T12:46:24+02:00</time>
      </trkpt>
      <trkpt lat="43.47401" lon="6.89509">
        <ele>310</ele>
        <time>2021-04-14T12:46:24+02:00</time>
      </trkpt>
      <trkpt lat="43.47406" lon="6.8952">
        <ele>310</ele>
        <time>2021-04-14T12:46:24+02:00</time>
      </trkpt>
      <trkpt lat="43.47408" lon="6.89533">
        <ele>309</ele>
        <time>2021-04-14T12:46:24+02:00</time>
      </trkpt>
      <trkpt lat="43.47414" lon="6.89543">
        <ele>309</ele>
        <time>2021-04-14T12:46:24+02:00</time>
      </trkpt>
      <trkpt lat="43.47423" lon="6.89542">
        <ele>309</ele>
        <time>2021-04-14T12:46:24+02:00</time>
      </trkpt>
      <trkpt lat="43.47433" lon="6.89544">
        <ele>309</ele>
        <time>2021-04-14T12:46:24+02:00</time>
      </trkpt>
      <trkpt lat="43.47442" lon="6.89541">
        <ele>309</ele>
        <time>2021-04-14T12:46:24+02:00</time>
      </trkpt>
      <trkpt lat="43.47447" lon="6.89529">
        <ele>309</ele>
        <time>2021-04-14T12:48:32+02:00</time>
      </trkpt>
      <trkpt lat="43.47454" lon="6.89536">
        <ele>309</ele>
        <time>2021-04-14T12:48:32+02:00</time>
      </trkpt>
      <trkpt lat="43.47463" lon="6.89531">
        <ele>309</ele>
        <time>2021-04-14T12:48:32+02:00</time>
      </trkpt>
      <trkpt lat="43.47471" lon="6.89523">
        <ele>309</ele>
        <time>2021-04-14T12:48:32+02:00</time>
      </trkpt>
      <trkpt lat="43.47481" lon="6.89518">
        <ele>309</ele>
        <time>2021-04-14T12:50:40+02:00</time>
      </trkpt>
      <trkpt lat="43.4749" lon="6.89516">
        <ele>309</ele>
        <time>2021-04-14T12:50:40+02:00</time>
      </trkpt>
      <trkpt lat="43.47498" lon="6.89512">
        <ele>309</ele>
        <time>2021-04-14T12:50:40+02:00</time>
      </trkpt>
      <trkpt lat="43.47497" lon="6.89525">
        <ele>309</ele>
        <time>2021-04-14T12:50:40+02:00</time>
      </trkpt>
      <trkpt lat="43.47491" lon="6.89535">
        <ele>309</ele>
        <time>2021-04-14T12:50:40+02:00</time>
      </trkpt>
      <trkpt lat="43.47484" lon="6.89542">
        <ele>309</ele>
        <time>2021-04-14T12:50:40+02:00</time>
      </trkpt>
      <trkpt lat="43.47476" lon="6.89551">
        <ele>310</ele>
        <time>2021-04-14T12:50:40+02:00</time>
      </trkpt>
      <trkpt lat="43.4747" lon="6.89562">
        <ele>310</ele>
        <time>2021-04-14T12:50:40+02:00</time>
      </trkpt>
      <trkpt lat="43.47467" lon="6.89574">
        <ele>310</ele>
        <time>2021-04-14T12:50:40+02:00</time>
      </trkpt>
      <trkpt lat="43.4746" lon="6.89582">
        <ele>311</ele>
        <time>2021-04-14T12:52:48+02:00</time>
      </trkpt>
      <trkpt lat="43.47454" lon="6.89592">
        <ele>311</ele>
        <time>2021-04-14T12:52:48+02:00</time>
      </trkpt>
      <trkpt lat="43.47446" lon="6.89599">
        <ele>312</ele>
        <time>2021-04-14T12:52:48+02:00</time>
      </trkpt>
      <trkpt lat="43.47438" lon="6.89607">
        <ele>312</ele>
        <time>2021-04-14T12:52:48+02:00</time>
      </trkpt>
      <trkpt lat="43.47429" lon="6.89612">
        <ele>313</ele>
        <time>2021-04-14T12:52:48+02:00</time>
      </trkpt>
      <trkpt lat="43.47421" lon="6.89617">
        <ele>314</ele>
        <time>2021-04-14T12:54:56+02:00</time>
      </trkpt>
      <trkpt lat="43.47411" lon="6.89619">
        <ele>314</ele>
        <time>2021-04-14T12:54:56+02:00</time>
      </trkpt>
      <trkpt lat="43.47403" lon="6.89623">
        <ele>315</ele>
        <time>2021-04-14T12:54:56+02:00</time>
      </trkpt>
      <trkpt lat="43.47395" lon="6.89629">
        <ele>315</ele>
        <time>2021-04-14T12:54:56+02:00</time>
      </trkpt>
      <trkpt lat="43.47385" lon="6.89632">
        <ele>315</ele>
        <time>2021-04-14T12:54:56+02:00</time>
      </trkpt>
      <trkpt lat="43.47377" lon="6.89626">
        <ele>316</ele>
        <time>2021-04-14T12:54:56+02:00</time>
      </trkpt>
      <trkpt lat="43.47368" lon="6.8962">
        <ele>316</ele>
        <time>2021-04-14T12:54:56+02:00</time>
      </trkpt>
      <trkpt lat="43.47361" lon="6.89611">
        <ele>316</ele>
        <time>2021-04-14T12:54:56+02:00</time>
      </trkpt>
      <trkpt lat="43.47355" lon="6.89601">
        <ele>316</ele>
        <time>2021-04-14T12:54:56+02:00</time>
      </trkpt>
      <trkpt lat="43.47349" lon="6.89591">
        <ele>317</ele>
        <time>2021-04-14T12:59:12+02:00</time>
      </trkpt>
      <trkpt lat="43.47348" lon="6.89579">
        <ele>317</ele>
        <time>2021-04-14T12:59:12+02:00</time>
      </trkpt>
      <trkpt lat="43.47342" lon="6.89569">
        <ele>318</ele>
        <time>2021-04-14T12:59:12+02:00</time>
      </trkpt>
      <trkpt lat="43.47336" lon="6.89559">
        <ele>319</ele>
        <time>2021-04-14T12:59:12+02:00</time>
      </trkpt>
      <trkpt lat="43.47333" lon="6.89546">
        <ele>319</ele>
        <time>2021-04-14T12:59:12+02:00</time>
      </trkpt>
      <trkpt lat="43.47328" lon="6.89536">
        <ele>322</ele>
        <time>2021-04-14T12:59:12+02:00</time>
      </trkpt>
      <trkpt lat="43.4732" lon="6.89529">
        <ele>324</ele>
        <time>2021-04-14T12:59:12+02:00</time>
      </trkpt>
      <trkpt lat="43.47315" lon="6.89518">
        <ele>326</ele>
        <time>2021-04-14T13:01:20+02:00</time>
      </trkpt>
      <trkpt lat="43.4732" lon="6.89506">
        <ele>329</ele>
        <time>2021-04-14T13:01:20+02:00</time>
      </trkpt>
      <trkpt lat="43.47317" lon="6.89494">
        <ele>333</ele>
        <time>2021-04-14T13:03:28+02:00</time>
      </trkpt>
      <trkpt lat="43.47326" lon="6.89499">
        <ele>334</ele>
        <time>2021-04-14T13:05:36+02:00</time>
      </trkpt>
      <trkpt lat="43.4732" lon="6.89509">
        <ele>335</ele>
        <time>2021-04-14T13:05:36+02:00</time>
      </trkpt>
      <trkpt lat="43.47316" lon="6.89521">
        <ele>336</ele>
        <time>2021-04-14T13:05:36+02:00</time>
      </trkpt>
      <trkpt lat="43.47318" lon="6.89534">
        <ele>338</ele>
        <time>2021-04-14T13:05:36+02:00</time>
      </trkpt>
      <trkpt lat="43.47314" lon="6.89545">
        <ele>339</ele>
        <time>2021-04-14T13:05:36+02:00</time>
      </trkpt>
      <trkpt lat="43.47309" lon="6.89556">
        <ele>340</ele>
        <time>2021-04-14T13:05:36+02:00</time>
      </trkpt>
      <trkpt lat="43.47304" lon="6.89567">
        <ele>341</ele>
        <time>2021-04-14T13:05:36+02:00</time>
      </trkpt>
      <trkpt lat="43.47296" lon="6.89575">
        <ele>341</ele>
        <time>2021-04-14T13:05:36+02:00</time>
      </trkpt>
      <trkpt lat="43.4729" lon="6.89584">
        <ele>342</ele>
        <time>2021-04-14T13:05:36+02:00</time>
      </trkpt>
      <trkpt lat="43.47283" lon="6.89593">
        <ele>342</ele>
        <time>2021-04-14T13:07:44+02:00</time>
      </trkpt>
      <trkpt lat="43.47275" lon="6.896">
        <ele>342</ele>
        <time>2021-04-14T13:07:44+02:00</time>
      </trkpt>
      <trkpt lat="43.47268" lon="6.89609">
        <ele>343</ele>
        <time>2021-04-14T13:07:44+02:00</time>
      </trkpt>
      <trkpt lat="43.47261" lon="6.89618">
        <ele>343</ele>
        <time>2021-04-14T13:07:44+02:00</time>
      </trkpt>
      <trkpt lat="43.47253" lon="6.89625">
        <ele>343</ele>
        <time>2021-04-14T13:07:44+02:00</time>
      </trkpt>
      <trkpt lat="43.47245" lon="6.89632">
        <ele>343</ele>
        <time>2021-04-14T13:07:44+02:00</time>
      </trkpt>
      <trkpt lat="43.4724" lon="6.89642">
        <ele>343</ele>
        <time>2021-04-14T13:07:44+02:00</time>
      </trkpt>
      <trkpt lat="43.47232" lon="6.8965">
        <ele>343</ele>
        <time>2021-04-14T13:07:44+02:00</time>
      </trkpt>
      <trkpt lat="43.47226" lon="6.8966">
        <ele>343</ele>
        <time>2021-04-14T13:07:44+02:00</time>
      </trkpt>
      <trkpt lat="43.47218" lon="6.89667">
        <ele>343</ele>
        <time>2021-04-14T13:09:52+02:00</time>
      </trkpt>
      <trkpt lat="43.47213" lon="6.89677">
        <ele>343</ele>
        <time>2021-04-14T13:09:52+02:00</time>
      </trkpt>
      <trkpt lat="43.47208" lon="6.89688">
        <ele>343</ele>
        <time>2021-04-14T13:09:52+02:00</time>
      </trkpt>
      <trkpt lat="43.47207" lon="6.89701">
        <ele>343</ele>
        <time>2021-04-14T13:09:52+02:00</time>
      </trkpt>
      <trkpt lat="43.47203" lon="6.89714">
        <ele>343</ele>
        <time>2021-04-14T13:09:52+02:00</time>
      </trkpt>
      <trkpt lat="43.47199" lon="6.89726">
        <ele>343</ele>
        <time>2021-04-14T13:09:52+02:00</time>
      </trkpt>
      <trkpt lat="43.47197" lon="6.89738">
        <ele>343</ele>
        <time>2021-04-14T13:09:52+02:00</time>
      </trkpt>
      <trkpt lat="43.47193" lon="6.8975">
        <ele>342</ele>
        <time>2021-04-14T13:09:52+02:00</time>
      </trkpt>
      <trkpt lat="43.47192" lon="6.89763">
        <ele>342</ele>
        <time>2021-04-14T13:09:52+02:00</time>
      </trkpt>
      <trkpt lat="43.47191" lon="6.89776">
        <ele>342</ele>
        <time>2021-04-14T13:09:52+02:00</time>
      </trkpt>
      <trkpt lat="43.47187" lon="6.89787">
        <ele>342</ele>
        <time>2021-04-14T13:09:52+02:00</time>
      </trkpt>
      <trkpt lat="43.47186" lon="6.898">
        <ele>342</ele>
        <time>2021-04-14T13:09:52+02:00</time>
      </trkpt>
      <trkpt lat="43.47184" lon="6.89814">
        <ele>342</ele>
        <time>2021-04-14T13:12:00+02:00</time>
      </trkpt>
      <trkpt lat="43.47182" lon="6.89827">
        <ele>342</ele>
        <time>2021-04-14T13:12:00+02:00</time>
      </trkpt>
      <trkpt lat="43.47184" lon="6.89839">
        <ele>341</ele>
        <time>2021-04-14T13:12:00+02:00</time>
      </trkpt>
      <trkpt lat="43.47192" lon="6.89847">
        <ele>341</ele>
        <time>2021-04-14T13:12:00+02:00</time>
      </trkpt>
      <trkpt lat="43.47198" lon="6.89858">
        <ele>340</ele>
        <time>2021-04-14T13:12:00+02:00</time>
      </trkpt>
      <trkpt lat="43.47207" lon="6.89864">
        <ele>340</ele>
        <time>2021-04-14T13:14:08+02:00</time>
      </trkpt>
      <trkpt lat="43.47216" lon="6.89869">
        <ele>340</ele>
        <time>2021-04-14T13:14:08+02:00</time>
      </trkpt>
      <trkpt lat="43.47224" lon="6.89875">
        <ele>339</ele>
        <time>2021-04-14T13:14:08+02:00</time>
      </trkpt>
      <trkpt lat="43.47233" lon="6.8988">
        <ele>339</ele>
        <time>2021-04-14T13:14:08+02:00</time>
      </trkpt>
      <trkpt lat="43.47242" lon="6.89884">
        <ele>338</ele>
        <time>2021-04-14T13:14:08+02:00</time>
      </trkpt>
      <trkpt lat="43.47251" lon="6.8989">
        <ele>338</ele>
        <time>2021-04-14T13:14:08+02:00</time>
      </trkpt>
      <trkpt lat="43.47257" lon="6.89899">
        <ele>338</ele>
        <time>2021-04-14T13:14:08+02:00</time>
      </trkpt>
      <trkpt lat="43.47264" lon="6.89908">
        <ele>338</ele>
        <time>2021-04-14T13:14:08+02:00</time>
      </trkpt>
      <trkpt lat="43.47272" lon="6.89914">
        <ele>337</ele>
        <time>2021-04-14T13:14:08+02:00</time>
      </trkpt>
      <trkpt lat="43.47277" lon="6.89925">
        <ele>337</ele>
        <time>2021-04-14T13:14:08+02:00</time>
      </trkpt>
      <trkpt lat="43.4728" lon="6.89937">
        <ele>337</ele>
        <time>2021-04-14T13:14:08+02:00</time>
      </trkpt>
      <trkpt lat="43.47282" lon="6.89949">
        <ele>337</ele>
        <time>2021-04-14T13:14:08+02:00</time>
      </trkpt>
      <trkpt lat="43.47286" lon="6.89961">
        <ele>336</ele>
        <time>2021-04-14T13:14:08+02:00</time>
      </trkpt>
      <trkpt lat="43.47294" lon="6.89969">
        <ele>336</ele>
        <time>2021-04-14T13:14:08+02:00</time>
      </trkpt>
      <trkpt lat="43.47298" lon="6.89981">
        <ele>336</ele>
        <time>2021-04-14T13:14:08+02:00</time>
      </trkpt>
      <trkpt lat="43.47299" lon="6.89995">
        <ele>335</ele>
        <time>2021-04-14T13:14:08+02:00</time>
      </trkpt>
      <trkpt lat="43.47301" lon="6.90008">
        <ele>335</ele>
        <time>2021-04-14T13:16:16+02:00</time>
      </trkpt>
      <trkpt lat="43.47306" lon="6.90018">
        <ele>334</ele>
        <time>2021-04-14T13:16:16+02:00</time>
      </trkpt>
      <trkpt lat="43.47312" lon="6.90029">
        <ele>334</ele>
        <time>2021-04-14T13:16:16+02:00</time>
      </trkpt>
      <trkpt lat="43.47315" lon="6.9004">
        <ele>333</ele>
        <time>2021-04-14T13:16:16+02:00</time>
      </trkpt>
      <trkpt lat="43.47322" lon="6.9005">
        <ele>333</ele>
        <time>2021-04-14T13:16:16+02:00</time>
      </trkpt>
      <trkpt lat="43.4733" lon="6.90055">
        <ele>332</ele>
        <time>2021-04-14T13:16:16+02:00</time>
      </trkpt>
      <trkpt lat="43.47336" lon="6.90066">
        <ele>332</ele>
        <time>2021-04-14T13:16:16+02:00</time>
      </trkpt>
      <trkpt lat="43.47336" lon="6.90079">
        <ele>332</ele>
        <time>2021-04-14T13:16:16+02:00</time>
      </trkpt>
      <trkpt lat="43.47334" lon="6.90091">
        <ele>331</ele>
        <time>2021-04-14T13:16:16+02:00</time>
      </trkpt>
      <trkpt lat="43.47338" lon="6.90104">
        <ele>331</ele>
        <time>2021-04-14T13:16:16+02:00</time>
      </trkpt>
      <trkpt lat="43.47342" lon="6.90115">
        <ele>330</ele>
        <time>2021-04-14T13:16:16+02:00</time>
      </trkpt>
      <trkpt lat="43.47348" lon="6.90125">
        <ele>330</ele>
        <time>2021-04-14T13:16:16+02:00</time>
      </trkpt>
      <trkpt lat="43.47354" lon="6.90136">
        <ele>329</ele>
        <time>2021-04-14T13:18:24+02:00</time>
      </trkpt>
      <trkpt lat="43.47348" lon="6.90146">
        <ele>329</ele>
        <time>2021-04-14T13:18:24+02:00</time>
      </trkpt>
      <trkpt lat="43.4734" lon="6.90151">
        <ele>329</ele>
        <time>2021-04-14T13:18:24+02:00</time>
      </trkpt>
      <trkpt lat="43.4733" lon="6.9015">
        <ele>328</ele>
        <time>2021-04-14T13:18:24+02:00</time>
      </trkpt>
      <trkpt lat="43.47322" lon="6.90155">
        <ele>328</ele>
        <time>2021-04-14T13:18:24+02:00</time>
      </trkpt>
      <trkpt lat="43.47316" lon="6.90165">
        <ele>328</ele>
        <time>2021-04-14T13:20:32+02:00</time>
      </trkpt>
      <trkpt lat="43.47313" lon="6.90177">
        <ele>327</ele>
        <time>2021-04-14T13:20:32+02:00</time>
      </trkpt>
      <trkpt lat="43.47304" lon="6.90174">
        <ele>327</ele>
        <time>2021-04-14T13:20:32+02:00</time>
      </trkpt>
      <trkpt lat="43.47297" lon="6.90166">
        <ele>327</ele>
        <time>2021-04-14T13:20:32+02:00</time>
      </trkpt>
      <trkpt lat="43.47288" lon="6.90168">
        <ele>326</ele>
        <time>2021-04-14T13:20:32+02:00</time>
      </trkpt>
      <trkpt lat="43.4728" lon="6.90177">
        <ele>326</ele>
        <time>2021-04-14T13:20:32+02:00</time>
      </trkpt>
      <trkpt lat="43.47272" lon="6.90183">
        <ele>326</ele>
        <time>2021-04-14T13:20:32+02:00</time>
      </trkpt>
      <trkpt lat="43.47263" lon="6.90188">
        <ele>325</ele>
        <time>2021-04-14T13:20:32+02:00</time>
      </trkpt>
      <trkpt lat="43.47255" lon="6.90192">
        <ele>325</ele>
        <time>2021-04-14T13:20:32+02:00</time>
      </trkpt>
      <trkpt lat="43.47246" lon="6.90197">
        <ele>325</ele>
        <time>2021-04-14T13:22:40+02:00</time>
      </trkpt>
      <trkpt lat="43.47237" lon="6.90203">
        <ele>325</ele>
        <time>2021-04-14T13:22:40+02:00</time>
      </trkpt>
      <trkpt lat="43.47229" lon="6.90208">
        <ele>324</ele>
        <time>2021-04-14T13:22:40+02:00</time>
      </trkpt>
      <trkpt lat="43.47221" lon="6.90214">
        <ele>324</ele>
        <time>2021-04-14T13:22:40+02:00</time>
      </trkpt>
      <trkpt lat="43.47213" lon="6.90222">
        <ele>324</ele>
        <time>2021-04-14T13:22:40+02:00</time>
      </trkpt>
      <trkpt lat="43.47206" lon="6.90233">
        <ele>324</ele>
        <time>2021-04-14T13:22:40+02:00</time>
      </trkpt>
      <trkpt lat="43.47201" lon="6.90243">
        <ele>323</ele>
        <time>2021-04-14T13:22:40+02:00</time>
      </trkpt>
      <trkpt lat="43.47198" lon="6.90255">
        <ele>323</ele>
        <time>2021-04-14T13:22:40+02:00</time>
      </trkpt>
      <trkpt lat="43.47195" lon="6.90267">
        <ele>323</ele>
        <time>2021-04-14T13:22:40+02:00</time>
      </trkpt>
      <trkpt lat="43.47193" lon="6.9028">
        <ele>323</ele>
        <time>2021-04-14T13:22:40+02:00</time>
      </trkpt>
      <trkpt lat="43.47194" lon="6.90294">
        <ele>323</ele>
        <time>2021-04-14T13:22:40+02:00</time>
      </trkpt>
      <trkpt lat="43.47196" lon="6.90308">
        <ele>323</ele>
        <time>2021-04-14T13:22:40+02:00</time>
      </trkpt>
      <trkpt lat="43.47198" lon="6.90321">
        <ele>322</ele>
        <time>2021-04-14T13:22:40+02:00</time>
      </trkpt>
      <trkpt lat="43.47201" lon="6.90333">
        <ele>322</ele>
        <time>2021-04-14T13:22:40+02:00</time>
      </trkpt>
      <trkpt lat="43.47203" lon="6.90346">
        <ele>322</ele>
        <time>2021-04-14T13:22:40+02:00</time>
      </trkpt>
      <trkpt lat="43.47206" lon="6.90358">
        <ele>322</ele>
        <time>2021-04-14T13:22:40+02:00</time>
      </trkpt>
      <trkpt lat="43.47208" lon="6.9037">
        <ele>322</ele>
        <time>2021-04-14T13:24:48+02:00</time>
      </trkpt>
      <trkpt lat="43.47204" lon="6.90382">
        <ele>322</ele>
        <time>2021-04-14T13:24:48+02:00</time>
      </trkpt>
      <trkpt lat="43.47199" lon="6.90392">
        <ele>322</ele>
        <time>2021-04-14T13:24:48+02:00</time>
      </trkpt>
      <trkpt lat="43.47197" lon="6.90404">
        <ele>321</ele>
        <time>2021-04-14T13:24:48+02:00</time>
      </trkpt>
      <trkpt lat="43.47194" lon="6.90417">
        <ele>321</ele>
        <time>2021-04-14T13:24:48+02:00</time>
      </trkpt>
      <trkpt lat="43.47191" lon="6.9043">
        <ele>321</ele>
        <time>2021-04-14T13:24:48+02:00</time>
      </trkpt>
      <trkpt lat="43.4719" lon="6.90443">
        <ele>321</ele>
        <time>2021-04-14T13:24:48+02:00</time>
      </trkpt>
      <trkpt lat="43.47192" lon="6.90456">
        <ele>320</ele>
        <time>2021-04-14T13:24:48+02:00</time>
      </trkpt>
      <trkpt lat="43.47197" lon="6.90468">
        <ele>320</ele>
        <time>2021-04-14T13:24:48+02:00</time>
      </trkpt>
      <trkpt lat="43.47203" lon="6.90478">
        <ele>320</ele>
        <time>2021-04-14T13:26:56+02:00</time>
      </trkpt>
      <trkpt lat="43.47208" lon="6.90489">
        <ele>319</ele>
        <time>2021-04-14T13:26:56+02:00</time>
      </trkpt>
      <trkpt lat="43.47214" lon="6.90499">
        <ele>319</ele>
        <time>2021-04-14T13:26:56+02:00</time>
      </trkpt>
      <trkpt lat="43.47218" lon="6.90511">
        <ele>319</ele>
        <time>2021-04-14T13:26:56+02:00</time>
      </trkpt>
      <trkpt lat="43.47224" lon="6.90522">
        <ele>318</ele>
        <time>2021-04-14T13:26:56+02:00</time>
      </trkpt>
      <trkpt lat="43.47229" lon="6.90532">
        <ele>318</ele>
        <time>2021-04-14T13:26:56+02:00</time>
      </trkpt>
      <trkpt lat="43.47234" lon="6.90545">
        <ele>318</ele>
        <time>2021-04-14T13:26:56+02:00</time>
      </trkpt>
      <trkpt lat="43.4724" lon="6.90555">
        <ele>318</ele>
        <time>2021-04-14T13:26:56+02:00</time>
      </trkpt>
      <trkpt lat="43.47246" lon="6.90566">
        <ele>318</ele>
        <time>2021-04-14T13:26:56+02:00</time>
      </trkpt>
      <trkpt lat="43.4725" lon="6.90578">
        <ele>318</ele>
        <time>2021-04-14T13:29:04+02:00</time>
      </trkpt>
      <trkpt lat="43.47253" lon="6.90591">
        <ele>317</ele>
        <time>2021-04-14T13:29:04+02:00</time>
      </trkpt>
      <trkpt lat="43.4726" lon="6.90599">
        <ele>317</ele>
        <time>2021-04-14T13:29:04+02:00</time>
      </trkpt>
      <trkpt lat="43.47261" lon="6.90612">
        <ele>317</ele>
        <time>2021-04-14T13:29:04+02:00</time>
      </trkpt>
      <trkpt lat="43.4726" lon="6.90624">
        <ele>317</ele>
        <time>2021-04-14T13:29:04+02:00</time>
      </trkpt>
      <trkpt lat="43.47252" lon="6.90631">
        <ele>317</ele>
        <time>2021-04-14T13:29:04+02:00</time>
      </trkpt>
      <trkpt lat="43.47244" lon="6.90638">
        <ele>317</ele>
        <time>2021-04-14T13:29:04+02:00</time>
      </trkpt>
      <trkpt lat="43.47235" lon="6.90639">
        <ele>316</ele>
        <time>2021-04-14T13:29:04+02:00</time>
      </trkpt>
      <trkpt lat="43.47225" lon="6.9064">
        <ele>316</ele>
        <time>2021-04-14T13:29:04+02:00</time>
      </trkpt>
      <trkpt lat="43.47215" lon="6.90643">
        <ele>316</ele>
        <time>2021-04-14T13:29:04+02:00</time>
      </trkpt>
      <trkpt lat="43.47206" lon="6.90646">
        <ele>316</ele>
        <time>2021-04-14T13:29:04+02:00</time>
      </trkpt>
      <trkpt lat="43.47197" lon="6.9065">
        <ele>316</ele>
        <time>2021-04-14T13:29:04+02:00</time>
      </trkpt>
      <trkpt lat="43.47188" lon="6.90655">
        <ele>316</ele>
        <time>2021-04-14T13:31:12+02:00</time>
      </trkpt>
      <trkpt lat="43.47178" lon="6.90656">
        <ele>316</ele>
        <time>2021-04-14T13:31:12+02:00</time>
      </trkpt>
      <trkpt lat="43.47168" lon="6.9066">
        <ele>316</ele>
        <time>2021-04-14T13:31:12+02:00</time>
      </trkpt>
      <trkpt lat="43.47159" lon="6.90664">
        <ele>316</ele>
        <time>2021-04-14T13:31:12+02:00</time>
      </trkpt>
      <trkpt lat="43.4715" lon="6.90667">
        <ele>316</ele>
        <time>2021-04-14T13:31:12+02:00</time>
      </trkpt>
      <trkpt lat="43.4714" lon="6.90669">
        <ele>316</ele>
        <time>2021-04-14T13:31:12+02:00</time>
      </trkpt>
      <trkpt lat="43.4713" lon="6.90671">
        <ele>315</ele>
        <time>2021-04-14T13:31:12+02:00</time>
      </trkpt>
      <trkpt lat="43.47121" lon="6.90675">
        <ele>315</ele>
        <time>2021-04-14T13:31:12+02:00</time>
      </trkpt>
      <trkpt lat="43.47112" lon="6.9068">
        <ele>315</ele>
        <time>2021-04-14T13:31:12+02:00</time>
      </trkpt>
      <trkpt lat="43.47104" lon="6.90688">
        <ele>315</ele>
        <time>2021-04-14T13:33:20+02:00</time>
      </trkpt>
      <trkpt lat="43.47097" lon="6.90696">
        <ele>315</ele>
        <time>2021-04-14T13:33:20+02:00</time>
      </trkpt>
      <trkpt lat="43.47091" lon="6.90707">
        <ele>315</ele>
        <time>2021-04-14T13:33:20+02:00</time>
      </trkpt>
      <trkpt lat="43.47089" lon="6.90719">
        <ele>315</ele>
        <time>2021-04-14T13:33:20+02:00</time>
      </trkpt>
      <trkpt lat="43.47083" lon="6.90728">
        <ele>315</ele>
        <time>2021-04-14T13:33:20+02:00</time>
      </trkpt>
      <trkpt lat="43.47078" lon="6.90739">
        <ele>315</ele>
        <time>2021-04-14T13:33:20+02:00</time>
      </trkpt>
      <trkpt lat="43.47074" lon="6.9075">
        <ele>315</ele>
        <time>2021-04-14T13:33:20+02:00</time>
      </trkpt>
      <trkpt lat="43.47068" lon="6.90761">
        <ele>314</ele>
        <time>2021-04-14T13:33:20+02:00</time>
      </trkpt>
      <trkpt lat="43.47064" lon="6.90773">
        <ele>314</ele>
        <time>2021-04-14T13:33:20+02:00</time>
      </trkpt>
      <trkpt lat="43.4706" lon="6.90784">
        <ele>314</ele>
        <time>2021-04-14T13:33:20+02:00</time>
      </trkpt>
      <trkpt lat="43.47053" lon="6.90794">
        <ele>314</ele>
        <time>2021-04-14T13:33:20+02:00</time>
      </trkpt>
      <trkpt lat="43.47048" lon="6.90804">
        <ele>314</ele>
        <time>2021-04-14T13:33:20+02:00</time>
      </trkpt>
      <trkpt lat="43.47043" lon="6.90815">
        <ele>314</ele>
        <time>2021-04-14T13:33:20+02:00</time>
      </trkpt>
      <trkpt lat="43.47036" lon="6.90824">
        <ele>314</ele>
        <time>2021-04-14T13:35:28+02:00</time>
      </trkpt>
      <trkpt lat="43.47031" lon="6.90834">
        <ele>314</ele>
        <time>2021-04-14T13:35:28+02:00</time>
      </trkpt>
      <trkpt lat="43.47025" lon="6.90844">
        <ele>314</ele>
        <time>2021-04-14T13:35:28+02:00</time>
      </trkpt>
      <trkpt lat="43.47016" lon="6.90849">
        <ele>314</ele>
        <time>2021-04-14T13:35:28+02:00</time>
      </trkpt>
      <trkpt lat="43.47007" lon="6.90854">
        <ele>314</ele>
        <time>2021-04-14T13:35:28+02:00</time>
      </trkpt>
    </trkseg>
  </trk>
</gpx>